Weather History for KPRX - October, 2012

Change the Weather History Date:

Saturday, October 6, 2012

  Actual Average Record
Temperature  
Mean Temperature 50 °F -  
Max Temperature 55 °F 75 °F 87 °F (1997)
Min Temperature 44 °F 55 °F 42 °F (2001)
Degree Days  
Heating Degree Days 16    
Moisture  
Dew Point 42 °F    
Average Humidity 71    
Maximum Humidity 88    
Minimum Humidity 54    
Precipitation  
Precipitation 0.00 in - - ()
Sea Level Pressure  
Sea Level Pressure 30.19 in    
Wind  
Wind Speed 12 mph (NNE)    
Max Wind Speed 18 mph    
Max Gust Speed 22 mph    
Visibility 10 miles    
Events      
Averages and records for this station are not official NWS values.
T = Trace of Precipitation, MM = Missing Value Source: NWS Daily Summary

Daily Weather History Graph

Daily Weather History Graph

Search for Another Location

Airport or City:

Trip Planner

Search our weather history database for the weather conditions in past years. The results will help you decide how hot, cold, wet, or windy it might be!

Date:

Astronomy

Oct. 06, 2012 Rise Set
Actual Time 7:20 AM CDT 6:58 PM CDT
Civil Twilight 6:55 AM CDT 7:23 PM CDT
Nautical Twilight 6:26 AM CDT 7:52 PM CDT
Astronomical Twilight 5:57 AM CDT 8:21 PM CDT
Moon 11:27 PM CDT (10/6) 1:02 PM CDT (10/6)
Length of Visible Light 12h 28m
Length of Day
11h 38m
Waning Gibbous, 65% of the Moon is Illuminated
Oct 6
Waning Gibbous
Oct 8
Last Quarter
Oct 15
New
Oct 21
First Quarter
Oct 29
Full

Hourly Weather History & Observations

Time (CDT) Temp. Windchill Dew Point Humidity Pressure Visibility Wind Dir Wind Speed Gust Speed Precip Events Conditions
12:15 AM 55.4 °F - 48.2 °F 77% 30.12 in 10.0 mi NNE 12.7 mph - N/A   Overcast
12:35 AM 55.4 °F - 48.2 °F 77% 30.12 in 10.0 mi NNE 12.7 mph - N/A   Overcast
12:55 AM 55.4 °F - 48.2 °F 77% 30.14 in 10.0 mi North 11.5 mph - N/A   Overcast
1:15 AM 55.4 °F - 48.2 °F 77% 30.13 in 10.0 mi North 10.4 mph - N/A   Overcast
1:55 AM 55.4 °F - 48.2 °F 77% 30.13 in 10.0 mi North 13.8 mph - N/A   Overcast
2:15 AM 55.4 °F - 48.2 °F 77% 30.14 in 10.0 mi NNE 11.5 mph - N/A   Overcast
2:35 AM 55.4 °F - 48.2 °F 77% 30.14 in 10.0 mi North 11.5 mph - N/A   Overcast
2:55 AM 55.4 °F - 48.2 °F 77% 30.13 in 10.0 mi NNE 12.7 mph - N/A   Overcast
3:15 AM 53.6 °F - 48.2 °F 82% 30.13 in 10.0 mi North 13.8 mph 19.6 mph N/A   Overcast
3:35 AM 53.6 °F - 48.2 °F 82% 30.14 in 10.0 mi North 12.7 mph - N/A   Overcast
3:55 AM 53.6 °F - 48.2 °F 82% 30.14 in 10.0 mi North 13.8 mph - N/A   Overcast
4:35 AM 53.6 °F - 48.2 °F 82% 30.13 in 10.0 mi North 11.5 mph 16.1 mph N/A   Overcast
4:55 AM 53.6 °F - 48.2 °F 82% 30.14 in 10.0 mi NNE 13.8 mph - N/A   Overcast
5:15 AM 51.8 °F - 48.2 °F 88% 30.15 in 10.0 mi North 12.7 mph - N/A   Overcast
5:35 AM 51.8 °F - 48.2 °F 88% 30.16 in 10.0 mi North 12.7 mph 19.6 mph N/A   Overcast
5:55 AM 51.8 °F - 48.2 °F 88% 30.16 in 10.0 mi NNE 9.2 mph - N/A   Overcast
6:15 AM 51.8 °F - 48.2 °F 88% 30.16 in 10.0 mi NNE 9.2 mph - N/A   Overcast
6:35 AM 51.8 °F - 48.2 °F 88% 30.17 in 10.0 mi North 9.2 mph - N/A   Overcast
6:55 AM 51.8 °F - 48.2 °F 88% 30.17 in 10.0 mi North 9.2 mph - N/A   Overcast
7:15 AM 51.8 °F - 48.2 °F 88% 30.18 in 10.0 mi North 11.5 mph - N/A   Overcast
7:35 AM 51.8 °F - 48.2 °F 88% 30.18 in 10.0 mi NNE 11.5 mph - N/A   Overcast
7:55 AM 51.8 °F - 48.2 °F 88% 30.18 in 10.0 mi NNE 10.4 mph - N/A   Overcast
8:15 AM 51.8 °F - 48.2 °F 88% 30.19 in 10.0 mi NE 10.4 mph - N/A   Overcast
8:35 AM 51.8 °F - 46.4 °F 82% 30.19 in 10.0 mi NE 12.7 mph - N/A   Overcast
8:55 AM 51.8 °F - 46.4 °F 82% 30.20 in 10.0 mi NE 12.7 mph - N/A   Overcast
9:15 AM 51.8 °F - 42.8 °F 71% 30.19 in 10.0 mi ENE 16.1 mph - N/A   Overcast
9:35 AM 51.8 °F - 41.0 °F 67% 30.21 in 10.0 mi ENE 12.7 mph - N/A   Overcast
9:55 AM 51.8 °F - 39.2 °F 62% 30.20 in 10.0 mi ENE 16.1 mph 20.7 mph N/A   Overcast
10:15 AM 53.6 °F - 39.2 °F 58% 30.20 in 10.0 mi ENE 15.0 mph 19.6 mph N/A   Overcast
10:35 AM 53.6 °F - 39.2 °F 58% 30.20 in 10.0 mi East 12.7 mph 18.4 mph N/A   Overcast
10:55 AM 53.6 °F - 37.4 °F 54% 30.20 in 10.0 mi ENE 13.8 mph 21.9 mph N/A   Overcast
11:15 AM 53.6 °F - 37.4 °F 54% 30.20 in 10.0 mi ENE 17.3 mph - N/A   Overcast
11:35 AM 53.6 °F - 39.2 °F 58% 30.20 in 10.0 mi ENE 13.8 mph - N/A   Overcast
11:55 AM 53.6 °F - 39.2 °F 58% 30.21 in 10.0 mi NE 10.4 mph - N/A   Overcast
12:15 PM 53.6 °F - 39.2 °F 58% 30.21 in 10.0 mi ENE 13.8 mph - N/A   Overcast
12:35 PM 53.6 °F - 39.2 °F 58% 30.21 in 10.0 mi NE 10.4 mph - N/A   Overcast
12:55 PM 55.4 °F - 41.0 °F 58% 30.20 in 10.0 mi NE 10.4 mph - N/A   Overcast
1:15 PM 53.6 °F - 41.0 °F 62% 30.20 in 10.0 mi NNE 15.0 mph - N/A   Overcast
1:35 PM 53.6 °F - 39.2 °F 58% 30.20 in 10.0 mi NE 13.8 mph - N/A   Overcast
1:55 PM 53.6 °F - 39.2 °F 58% 30.18 in 10.0 mi NE 16.1 mph - N/A   Overcast
2:15 PM 53.6 °F - 39.2 °F 58% 30.17 in 10.0 mi NE 12.7 mph 18.4 mph N/A   Overcast
2:35 PM 53.6 °F - 39.2 °F 58% 30.17 in 10.0 mi NE 15.0 mph - N/A   Overcast
2:55 PM 51.8 °F - 37.4 °F 58% 30.17 in 10.0 mi NE 13.8 mph - N/A   Overcast
3:15 PM 51.8 °F - 37.4 °F 58% 30.17 in 10.0 mi NE 18.4 mph - N/A   Overcast
3:35 PM 51.8 °F - 37.4 °F 58% 30.17 in 10.0 mi ENE 13.8 mph - N/A   Overcast
3:55 PM 51.8 °F - 39.2 °F 62% 30.18 in 10.0 mi NNE 13.8 mph - N/A   Overcast
4:15 PM 51.8 °F - 39.2 °F 62% 30.19 in 10.0 mi NNE 9.2 mph - N/A   Overcast
4:35 PM 50.0 °F - 39.2 °F 66% 30.18 in 10.0 mi NNE 6.9 mph - N/A   Overcast
4:55 PM 50.0 °F - 39.2 °F 66% 30.18 in 10.0 mi NE 10.4 mph - N/A   Overcast
5:15 PM 50.0 °F - 39.2 °F 66% 30.18 in 10.0 mi NE 10.4 mph - N/A   Overcast
5:35 PM 51.8 °F - 39.2 °F 62% 30.19 in 10.0 mi NE 12.7 mph - N/A   Overcast
6:15 PM 50.0 °F - 39.2 °F 66% 30.20 in 10.0 mi NE 11.5 mph - N/A   Overcast
6:35 PM 48.2 °F - 37.4 °F 66% 30.19 in 10.0 mi NE 12.7 mph - N/A   Overcast
6:55 PM 48.2 °F - 35.6 °F 62% 30.18 in 10.0 mi ENE 16.1 mph - N/A   Overcast
7:15 PM 46.4 °F 40.7 °F 35.6 °F 66% 30.22 in 10.0 mi NNE 12.7 mph 19.6 mph N/A   Overcast
7:35 PM 46.4 °F 41.5 °F 37.4 °F 71% 30.23 in 10.0 mi NNE 10.4 mph - N/A   Overcast
7:55 PM 46.4 °F 41.5 °F 37.4 °F 71% 30.23 in 10.0 mi NNE 10.4 mph - N/A   Overcast
8:15 PM 46.4 °F 41.9 °F 39.2 °F 76% 30.24 in 10.0 mi NNE 9.2 mph - N/A   Overcast
8:35 PM 46.4 °F 41.1 °F 37.4 °F 71% 30.24 in 10.0 mi NNE 11.5 mph - N/A   Overcast
8:55 PM 46.4 °F 40.7 °F 37.4 °F 71% 30.26 in 10.0 mi North 12.7 mph - N/A   Overcast
9:15 PM 46.4 °F 41.1 °F 37.4 °F 71% 30.26 in 10.0 mi NNE 11.5 mph - N/A   Overcast
9:35 PM 46.4 °F 41.1 °F 37.4 °F 71% 30.25 in 10.0 mi NNE 11.5 mph - N/A   Overcast
9:55 PM 46.4 °F 40.4 °F 37.4 °F 71% 30.28 in 10.0 mi North 13.8 mph 17.3 mph N/A   Overcast
10:15 PM 46.4 °F 40.7 °F 37.4 °F 71% 30.28 in 10.0 mi North 12.7 mph - N/A   Overcast
10:35 PM 46.4 °F 41.9 °F 37.4 °F 71% 30.28 in 10.0 mi NNE 9.2 mph 18.4 mph N/A   Overcast
10:55 PM 46.4 °F 41.5 °F 39.2 °F 76% 30.28 in 10.0 mi NNE 10.4 mph - N/A   Overcast
11:15 PM 44.6 °F 38.4 °F 39.2 °F 81% 30.27 in 10.0 mi NNE 12.7 mph 16.1 mph N/A   Overcast
11:35 PM 46.4 °F 41.5 °F 39.2 °F 76% 30.28 in 10.0 mi NE 10.4 mph - N/A   Overcast
11:55 PM 46.4 °F 41.1 °F 39.2 °F 76% 30.27 in 10.0 mi NE 11.5 mph - N/A   Overcast